FW4526 Weather Reports


time (UTC)temp
C
wind
direction
speed
KPH
gust
KPH
rain 1hr
cm
rain 24hr
cm
rain mn
cm
humidity
%
barometer
mb
20260507224532 15 209 3.2 12.9 0.00 0.30 0.10 68 1006.6
20260507223024 15 146 1.6 9.7 0.00 0.30 0.10 68 1006.5
20260507221522 16 136 6.4 16.1 0.00 0.30 0.10 67 1006.3
20260507220054 16 179 3.2 11.3 0.00 0.30 0.10 67 1006.2
20260507214554 16 186 4.8 12.9 0.00 0.30 0.10 66 1006.3
20260507213048 16 125 6.4 14.5 0.00 0.30 0.10 66 1006.4
20260507211548 16 198 4.8 14.5 0.00 0.30 0.10 67 1006.3
20260507210048 16 80 3.2 11.3 0.00 0.30 0.10 66 1006.4
20260507204552 16 134 6.4 16.1 0.00 0.30 0.10 65 1006.2
20260507203042 16 101 1.6 20.9 0.00 0.30 0.10 68 1006.4
20260507201552 16 148 4.8 19.3 0.00 0.30 0.10 67 1006.2
20260507200041 16 146 6.4 17.7 0.00 0.30 0.10 67 1006.4
20260507194540 17 171 6.4 19.3 0.00 0.30 0.10 63 1006.6
20260507193037 17 130 6.4 11.3 0.00 0.30 0.10 56 1006.6
20260507191535 17 73 4.8 16.1 0.00 0.30 0.10 52 1006.7
20260507190033 17 75 3.2 9.7 0.00 0.30 0.10 56 1007.1
20260507184533 15 114 3.2 11.3 0.00 0.30 0.10 58 1007.1
20260507183030 15 94 3.2 9.7 0.00 0.30 0.10 57 1007.2
20260507181531 15 82 1.6 12.9 0.00 0.30 0.10 60 1007.3
20260507180030 16 87 4.8 11.3 0.00 0.30 0.10 56 1007.6
20260507174539 16 101 4.8 11.3 0.00 0.30 0.10 55 1007.7
20260507173030 16 34 1.6 12.9 0.00 0.30 0.10 59 1008.0
20260507171528 16 121 6.4 12.9 0.00 0.30 0.10 58 1008.2
20260507170039 16 315 4.8 14.5 0.00 0.30 0.10 57 1008.7
20260507164525 15 76 4.8 11.3 0.00 0.30 0.10 56 1009.0
20260507163022 15 344 4.8 11.3 0.00 0.30 0.10 60 1009.2
20260507161523 14 329 4.8 16.1 0.00 0.30 0.10 58 1009.3
20260507160021 13 284 4.8 11.3 0.00 0.30 0.10 61 1009.4
20260507154521 13 44 1.6 8.0 0.00 0.30 0.10 65 1009.6
20260507153021 13 46 4.8 12.9 0.00 0.30 0.10 61 1009.8
20260507151519 13 355 6.4 12.9 0.00 0.33 0.10 61 1009.8
20260507150018 13 44 3.2 12.9 0.00 0.33 0.10 69 1010.2
20260507144517 12 336 8.0 12.9 0.00 0.33 0.10 62 1010.3
20260507143016 12 40 3.2 11.3 0.00 0.33 0.10 68 1010.4
20260507141513 11 12 8.0 17.7 0.00 0.41 0.10 67 1010.4
20260507140012 11 329 3.2 11.3 0.00 0.41 0.10 72 1010.8
20260507134512 11 27 4.8 11.3 0.00 0.41 0.10 70 1010.9
20260507133009 11 5 1.6 6.4 0.00 0.41 0.10 69 1010.9
20260507131513 11 323 1.6 8.0 0.00 0.71 0.10 71 1010.8
20260507130009 11 342 3.2 9.7 0.00 0.71 0.10 69 1010.8
20260507124510 11 344 3.2 8.0 0.00 0.71 0.10 69 1010.8
20260507123002 11 282 1.6 6.4 0.00 0.71 0.10 70 1010.8
20260507121502 11 42 0.0 8.0 0.00 0.84 0.10 74 1010.7
20260507120003 11 30 1.6 8.0 0.00 0.84 0.10 75 1010.8
20260507114615 11 329 1.6 8.0 0.00 0.84 0.10 77 1010.3
20260507113102 11 28 1.6 8.0 0.00 0.84 0.10 77 1010.1
20260507111604 11 42 1.6 6.4 0.00 0.89 0.10 78 1010.0
20260507110106 11 36 3.2 8.0 0.00 0.89 0.10 78 1010.1
20260507104554 11 21 0.0 3.2 0.00 0.89 0.10 81 1009.7
20260507103054 11 19 0.0 6.4 0.00 0.89 0.10 81 1009.7
20260507101559 11 355 1.6 4.8 0.00 0.89 0.10 84 1009.7
20260507100049 11 350 0.0 3.2 0.00 0.89 0.10 85 1009.5
20260507094548 11 338 0.0 4.8 0.00 0.89 0.10 86 1009.2
20260507093053 11 325 0.0 3.2 0.00 0.89 0.10 87 1009.4
20260507091549 11 325 0.0 3.2 0.00 0.89 0.10 87 1008.9
20260507090043 11 325 0.0 4.8 0.00 0.89 0.10 87 1009.1
20260507084543 11 323 0.0 3.2 0.00 0.89 0.10 87 1009.2
20260507083042 11 323 0.0 3.2 0.00 0.89 0.10 87 1009.1
20260507081547 11 321 4.8 9.7 0.00 0.89 0.10 87 1009.0
20260507080038 11 345 0.0 3.2 0.00 0.89 0.10 88 1008.8
20260507074554 11 344 3.2 6.4 0.00 0.89 0.10 88 1008.5
20260507073037 11 325 3.2 9.7 0.00 0.89 0.10 88 1008.5
20260507071534 11 341 1.6 8.0 0.00 0.89 0.10 88 1008.5
20260507070033 11 350 1.6 4.8 0.00 0.89 0.10 89 1008.6
20260507064532 11 355 0.0 11.3 0.00 0.89 0.10 89 1008.5
20260507063032 12 28 1.6 9.7 0.00 0.89 0.10 89 1008.6
20260507061530 12 355 3.2 6.4 0.00 0.89 0.10 89 1009.1
20260507060027 12 319 1.6 6.4 0.00 0.89 0.10 90 1008.5
20260507054524 12 42 3.2 9.7 0.00 0.89 0.10 90 1008.6
20260507053023 12 5 4.8 14.5 0.00 0.89 0.10 89 1008.6
20260507051518 13 315 1.6 9.7 0.00 0.89 0.10 89 1008.7
20260507050025 13 344 3.2 14.5 0.00 0.89 0.10 88 1008.2
20260507044514 13 56 0.0 6.4 0.00 0.89 0.10 89 1008.4
20260507043013 13 327 0.0 9.7 0.00 0.89 0.10 87 1008.5
20260507041510 13 345 3.2 6.4 0.00 0.89 0.10 87 1008.3
20260507040009 13 340 3.2 14.5 0.00 0.89 0.10 86 1008.5
20260507034506 13 317 4.8 12.9 0.00 0.89 0.10 88 1008.2
20260507033012 13 342 1.6 8.0 0.08 0.89 0.10 89 1007.9
20260507031502 13 321 4.8 16.1 0.10 0.89 0.10 91 1007.9
20260507030000 13 338 4.8 14.5 0.10 0.89 0.10 91 1008.3
20260507024558 14 325 1.6 6.4 0.10 0.89 0.10 90 1007.6
20260507023104 15 323 6.4 14.5 0.03 0.81 0.03 87 1007.3
20260507021522 16 324 1.6 9.7 0.00 0.79 0.00 89 1007.6
20260507020020 16 350 1.6 8.0 0.00 0.79 0.00 90 1007.3
20260507014523 16 344 0.0 8.0 0.00 0.79 0.00 92 1007.3
20260507013014 16 349 3.2 6.4 0.00 0.79 0.00 92 1007.3
20260507011513 16 335 1.6 8.0 0.00 0.79 0.00 91 1007.2
20260507010012 16 317 3.2 11.3 0.00 0.79 0.00 91 1007.4
20260507004512 17 360 1.6 9.7 0.00 0.79 0.00 92 1007.2
20260507003005 17 346 3.2 11.3 0.00 0.79 0.00 94 1006.8
20260507001504 17 5 0.0 8.0 0.03 0.79 0.79 95 1006.9
20260507000003 17 344 3.2 9.7 0.15 0.79 0.79 97 1006.6
20260506234500 18 308 0.0 0.0 0.20 0.79 0.79 96 1006.4
20260506233126 18 308 0.0 3.2 0.20 0.79 0.79 94 1006.2
20260506231600 18 308 0.0 1.6 0.18 0.76 0.76 93 1006.1
20260506230100 19 306 1.6 3.2 0.05 0.64 0.64 88 1005.6